Flag for Canada Weather past 2 weeks in Hay River, Northwest Territories, Canada

Now
41 °F

Passing clouds.


Feels Like: 34 °F
Forecast: 24 / 43 °F
Wind: 12 mph from East

Location: Hay River

Current Time: May 6, 2015 at 11:42:29 AM

Latest Report: May 6, 2015 at 11:00 AM


Visibility: 15 mi

Pressure: 30.27 "Hg

Humidity: 28%

Dew point: 10 °F

Location of Hay RiverLocation

Historic Weather in Hay River — Graph

°F

Hay River temperature yesterday

Maximum temperature yesterday: 39 °F (at 1:00 PM)
Minimum temperature yesterday: 21 °F (at 2:00 AM)
Average temperature yesterday: 31 °F

Past Weeks' High & Low Weather Summary

 TemperatureHumidityPressure
High70 °F (Apr 28, 4:00 PM)93% (Apr 25, 11:00 PM)30.32 "Hg (Apr 25, 11:00 PM)
Low14 °F (Apr 24, 4:00 AM)16% (Apr 29, 4:00 PM)29.43 "Hg (Apr 28, 11:00 PM)
Average38 °F58%29.98 "Hg
* Reported Apr 21 10:00 AM — May 6 10:00 AM, Hay River, Weather by CustomWeather, © 2015

Note: Actual official high and low records may vary slightly from our data, if they occured in-between our weather recording intervals... More about our weather records

Advertising

Hay River weather history for previous 24 hours

 ConditionsComfort  
Time TempWeatherWind HumidityBarometerVisibility
10:00 AM
Wed, May 6
41 °FPassing clouds.12 mph28%30.27 "Hg15 mi
9:00 AM37 °FPassing clouds.6 mph38%30.27 "Hg15 mi
8:00 AM28 °FPassing clouds.5 mph59%30.27 "Hg15 mi
7:00 AM23 °FPassing clouds.7 mph74%30.28 "Hg15 mi
6:00 AM19 °FPassing clouds.3 mph73%30.28 "Hg15 mi
5:00 AM23 °FPassing clouds.2 mph68%30.28 "Hg15 mi
4:00 AM27 °FPassing clouds.3 mph50%30.27 "Hg15 mi
3:00 AM25 °FPassing clouds.6 mph54%30.27 "Hg15 mi
2:00 AM25 °FPassing clouds.6 mph59%30.28 "Hg15 mi
1:00 AM27 °FPassing clouds.6 mph50%30.29 "Hg15 mi
12:00 AM28 °FPassing clouds.10 mph47%30.29 "Hg15 mi
11:00 PM
Tue, May 5
28 °FPassing clouds.9 mph51%30.29 "Hg15 mi
10:00 PM30 °FScattered clouds.12 mph47%30.29 "Hg15 mi
9:00 PM30 °FPassing clouds.12 mph51%30.29 "Hg15 mi
8:00 PM34 °FPassing clouds.14 mph44%30.27 "Hg15 mi
7:00 PM36 °FPassing clouds.15 mph44%30.27 "Hg15 mi
6:00 PM36 °FPassing clouds.17 mph41%30.26 "Hg15 mi
5:00 PM39 °FPassing clouds.17 mph36%30.27 "Hg15 mi
4:00 PM39 °FPassing clouds.18 mph36%30.28 "Hg15 mi
3:00 PM39 °FPassing clouds.15 mph36%30.28 "Hg15 mi
2:00 PM39 °FPassing clouds.13 mph36%30.29 "Hg15 mi
1:00 PM39 °FPassing clouds.13 mph36%30.29 "Hg15 mi
12:00 PM37 °FScattered clouds.12 mph41%30.29 "Hg15 mi
11:00 AM37 °FPassing clouds.10 mph45%30.29 "Hg15 mi
Weather by CustomWeather, © 2015

See weather overviewHow to use our weather pages